Regional Weather Roundup
Issued by NWS

Home | Current Version | Previous Version | Graphics & Text | Print | Product List | Glossary On
Versions: 1 2 3 4 5 6 7 8 9 10 11 12 13 14 15 16 17 18 19 20 21 22 23 24 25 26 27 28 29 30 31 32 33 34 35 36 37 38 39 40 41 42 43 44 45 46 47 48 49 50
106
ASUS43 KTOP 220959
RWRKS

WEATHER ROUNDUP FOR KANSAS
NATIONAL WEATHER SERVICE GOODLAND KS
400 AM CST WED FEB 22 2017

NOTE:  "FAIR" INDICATES FEW OR NO CLOUDS BELOW 12,000 FEET WITH NO
SIGNIFICANT WEATHER AND/OR OBSTRUCTIONS TO VISIBILITY.

KSZ001>006-013>018-027>032-041>047-221100-
NORTHWEST KANSAS

CITY           SKY/WX    TMP DP  RH WIND       PRES   REMARKS
GOODLAND       CLOUDY    57  14  18 SW18      29.78F
HAYS             N/A     46  26  45 SW9       29.77F
HILL CITY      CLOUDY    51  25  36 W6        29.73F
RUSSELL        PTCLDY    49  32  52 S14       29.75F
$$

KSZ061>065-074>080-084>089-221100-
SOUTHWEST KANSAS

CITY           SKY/WX    TMP DP  RH WIND       PRES   REMARKS
DODGE CITY     CLEAR     42  24  49 SW8       29.80F
ELKHART          N/A     49  16  27 W10         N/A
GARDEN CITY    CLOUDY    40  23  50 W10       29.81F WCI  33
GREAT BEND     CLOUDY    42  33  70 S9        29.78F
LIBERAL        CLOUDY    39  19  45 W10       29.83F WCI  32
$$

KSZ066>073-081>083-090>101-221100-
SOUTHEAST KANSAS

CITY           SKY/WX    TMP DP  RH WIND       PRES   REMARKS
CHANUTE        CLEAR     40  37  89 S7        29.84F
COFFEYVILLE    CLEAR     41  39  93 S5        29.86F
HUTCHINSON     CLOUDY    45  34  65 CALM      29.81F
MEDICINE LODGE   N/A     44  35  70 CALM      29.84F
NEWTON         CLEAR     45  37  73 S10       29.83F
PARSONS        CLEAR     38  36  92 CALM      29.86F FOG
WICHITA INTL   CLEAR     41  36  82 S9        29.83F
WICHITA JABRA  CLEAR     47  36  65 S6        29.83F
WINFIELD       CLEAR     44  37  76 CALM      29.86F
$$

KSZ007>012-019>026-033>040-048>060-102>105-221100-
NORTHEAST KANSAS

CITY           SKY/WX    TMP DP  RH WIND       PRES   REMARKS
CONCORDIA      CLOUDY    50  35  56 S18       29.74F
EMPORIA        PTCLDY    46  33  60 CALM      29.82F
LAWRENCE       CLEAR     35  30  82 CALM      29.82F
MANHATTAN      MOCLDY    48  37  65 S3        29.79S
OLATHE IND     CLEAR     41  36  82 S9        29.83S
OLATHE EXE     CLEAR     45  39  79 S5        29.82S
SALINA         CLOUDY    50  36  58 S6        29.79S
TOPEKA BILLARD CLEAR     47  34  60 S5        29.79F
TOPEKA FORBES  PTCLDY    44  34  67 S7        29.80F
$$




USA.gov is the U.S. government's official web portal to all federal, state and local government web resources and services.